WO0TEN Weather Reports


time (UTC)temp
C
wind
direction
speed
KPH
gust
KPH
rain 1hr
cm
rain 24hr
cm
rain mn
cm
humidity
%
barometer
mb
20260509213107 32 248 1.6 0.0 0.00 0.00 0.74 4
20260509212107 33 68 3.2 0.0 0.00 0.00 0.74 4
20260509211107 33 45 1.6 0.0 0.00 0.00 0.74 4
20260509210107 32 270 0.0 0.0 0.00 0.00 0.74 4
20260509205108 33 45 1.6 0.0 0.00 0.00 0.74 4
20260509204107 34 68 1.6 0.0 0.00 0.00 0.74 4
20260509203107 34 203 0.0 0.0 0.00 0.00 0.74 4
20260509202107 34 338 1.6 0.0 0.00 0.00 0.74 4
20260509201107 33 135 0.0 0.0 0.00 0.00 0.74 4
20260509200106 33 270 3.2 0.0 0.00 0.00 0.74 4
20260509195107 32 293 1.6 0.0 0.00 0.00 0.74 4
20260509194107 34 248 0.0 0.0 0.00 0.00 0.74 4
20260509193107 33 203 0.0 0.0 0.00 0.00 0.74 4
20260509192106 31 113 1.6 0.0 0.00 0.00 0.74 5
20260509191107 32 180 0.0 0.0 0.00 0.00 0.74 5
20260509190107 31 203 0.0 0.0 0.00 0.00 0.74 6
20260509185107 30 203 0.0 0.0 0.00 0.00 0.74 6
20260509184107 28 203 0.0 0.0 0.00 0.00 0.74 7
20260509183106 27 203 1.6 0.0 0.00 0.00 0.74 7
20260509182106 26 158 0.0 0.0 0.00 0.00 0.74 8
20260509181107 26 225 0.0 0.0 0.00 0.00 0.74 8
20260509180107 26 293 0.0 0.0 0.00 0.00 0.74 8
20260509175108 26 90 0.0 0.0 0.00 0.00 0.74 8
20260509174107 26 203 0.0 0.0 0.00 0.00 0.74 8
20260509173106 26 180 0.0 0.0 0.00 0.00 0.74 8
20260509172108 26 203 0.0 0.0 0.00 0.00 0.74 8
20260509171107 26 203 0.0 0.0 0.00 0.00 0.74 8
20260509170108 27 203 0.0 0.0 0.00 0.00 0.74 7
20260509165108 27 248 1.6 0.0 0.00 0.00 0.74 7
20260509164106 28 203 0.0 0.0 0.00 0.00 0.74 7
20260509163107 29 203 0.0 0.0 0.00 0.00 0.74 7
20260509162107 29 45 0.0 0.0 0.00 0.00 0.74 7
20260509161108 29 203 0.0 0.0 0.00 0.00 0.74 7
20260509160107 28 203 0.0 0.0 0.00 0.00 0.74 7
20260509155106 28 203 0.0 0.0 0.00 0.00 0.74 7
20260509154107 27 270 0.0 0.0 0.00 0.00 0.74 7
20260509153107 27 90 3.2 0.0 0.00 0.00 0.74 7
20260509152106 27 180 0.0 0.0 0.00 0.00 0.74 8
20260509151107 27 225 1.6 0.0 0.00 0.00 0.74 7
20260509150107 26 248 3.2 0.0 0.00 0.00 0.74 8
20260509145107 26 45 3.2 0.0 0.00 0.00 0.74 8
20260509144107 25 248 3.2 0.0 0.00 0.00 0.74 8
20260509143108 25 270 1.6 0.0 0.00 0.00 0.74 8
20260509142106 24 270 4.8 0.0 0.00 0.00 0.74 9
20260509141107 23 338 3.2 0.0 0.00 0.00 0.74 9
20260509140107 23 338 1.6 0.0 0.00 0.00 0.74 9
20260509135107 22 293 0.0 0.0 0.00 0.00 0.74 9
20260509134106 22 293 3.2 0.0 0.00 0.00 0.74 9
20260509133107 22 293 0.0 0.0 0.00 0.00 0.74 9
20260509132107 21 113 0.0 0.0 0.00 0.00 0.74 9
20260509131107 21 248 0.0 0.0 0.00 0.00 0.74 9
20260509130106 21 203 0.0 0.0 0.00 0.00 0.74 9
20260509125107 21 270 0.0 0.0 0.00 0.00 0.74 9
20260509124106 21 68 0.0 0.0 0.00 0.00 0.74 9
20260509123107 21 135 0.0 0.0 0.00 0.00 0.74 9
20260509122107 21 248 0.0 0.0 0.00 0.00 0.74 9
20260509121107 21 203 0.0 0.0 0.00 0.00 0.74 9
20260509120106 21 248 0.0 0.0 0.00 0.00 0.74 9
20260509115107 21 68 0.0 0.0 0.00 0.00 0.74 9
20260509114106 21 180 0.0 0.0 0.00 0.00 0.74 9
20260509113106 21 23 0.0 0.0 0.00 0.00 0.74 9
20260509112107 21 203 0.0 0.0 0.00 0.00 0.74 9
20260509111107 21 203 0.0 0.0 0.00 0.00 0.74 9
20260509110106 21 158 0.0 0.0 0.00 0.00 0.74 9
20260509105108 21 270 0.0 0.0 0.00 0.00 0.74 9
20260509104108 21 180 0.0 0.0 0.00 0.00 0.74 9
20260509103107 21 113 0.0 0.0 0.00 0.00 0.74 9
20260509102107 21 180 0.0 0.0 0.00 0.00 0.74 9
20260509101106 21 23 0.0 0.0 0.00 0.00 0.74 9
20260509100107 21 180 0.0 0.0 0.00 0.00 0.74 9
20260509095107 21 180 0.0 0.0 0.00 0.00 0.74 9
20260509094107 21 225 0.0 0.0 0.00 0.00 0.74 9
20260509093106 21 225 0.0 0.0 0.00 0.00 0.74 9
20260509092107 21 180 0.0 0.0 0.00 0.00 0.74 9
20260509091107 21 203 0.0 0.0 0.00 0.00 0.74 9
20260509090107 21 180 0.0 0.0 0.00 0.00 0.74 9
20260509085106 21 180 0.0 0.0 0.00 0.00 0.74 9
20260509084107 21 225 0.0 0.0 0.00 0.00 0.74 9
20260509083106 21 203 0.0 0.0 0.00 0.00 0.74 9
20260509082106 21 270 0.0 0.0 0.00 0.00 0.74 9
20260509081107 22 225 0.0 0.0 0.00 0.00 0.74 9
20260509080107 22 225 0.0 0.0 0.00 0.00 0.74 9
20260509075106 22 203 0.0 0.0 0.00 0.00 0.74 9
20260509074106 22 225 0.0 0.0 0.00 0.00 0.74 9
20260509073107 22 203 0.0 0.0 0.00 0.00 0.74 9
20260509072107 22 203 0.0 0.0 0.00 0.00 0.74 9
20260509071107 22 203 0.0 0.0 0.00 0.00 0.74 9
20260509070107 22 203 0.0 0.0 0.00 0.00 0.74 9
20260509065106 22 225 0.0 0.0 0.00 0.00 0.74 9
20260509064107 22 225 0.0 0.0 0.00 0.00 0.74 9
20260509063107 22 225 0.0 0.0 0.00 0.00 0.74 9
20260509062107 22 225 0.0 0.0 0.00 0.00 0.74 9
20260509061108 22 180 0.0 0.0 0.00 0.00 0.74 9
20260509060108 22 203 0.0 0.0 0.00 0.00 0.74 9
20260509055107 22 203 0.0 0.0 0.00 0.00 0.74 9
20260509054106 22 203 0.0 0.0 0.00 0.00 0.74 9
20260509053106 22 203 0.0 0.0 0.00 0.00 0.74 9
20260509052107 22 225 0.0 0.0 0.00 0.00 0.74 9
20260509051107 22 203 0.0 0.0 0.00 0.00 0.74 9
20260509050108 22 203 0.0 0.0 0.00 0.00 0.74 9
20260509045107 22 225 0.0 0.0 0.00 0.00 0.74 9
20260509044107 22 225 0.0 0.0 0.00 0.00 0.74 9
20260509043107 22 248 0.0 0.0 0.00 0.00 0.74 9
20260509042108 22 225 0.0 0.0 0.00 0.00 0.74 9
20260509041107 22 225 0.0 0.0 0.00 0.00 0.74 9
20260509040108 22 248 0.0 0.0 0.00 0.00 0.74 9
20260509035108 21 270 0.0 0.0 0.00 0.00 0.74 9
20260509034107 21 270 0.0 0.0 0.00 0.00 0.74 9
20260509033107 21 225 0.0 0.0 0.00 0.00 0.74 9
20260509032107 21 225 0.0 0.0 0.00 0.00 0.74 9
20260509031107 21 248 0.0 0.0 0.00 0.00 0.74 9
20260509030107 21 270 0.0 0.0 0.00 0.00 0.74 9
20260509025107 21 225 0.0 0.0 0.00 0.00 0.74 9
20260509024107 21 270 0.0 0.0 0.00 0.00 0.74 9
20260509023107 21 248 0.0 0.0 0.00 0.00 0.74 9
20260509022107 21 225 0.0 0.0 0.00 0.00 0.74 9
20260509021108 22 180 0.0 0.0 0.00 0.00 0.74 9
20260509020107 22 180 0.0 0.0 0.00 0.00 0.74 9
20260509015106 22 225 0.0 0.0 0.00 0.00 0.74 9
20260509014106 22 225 0.0 0.0 0.00 0.00 0.74 8
20260509013107 22 225 0.0 0.0 0.00 0.00 0.74 8
20260509012107 22 248 0.0 0.0 0.00 0.00 0.74 8
20260509011107 23 203 0.0 0.0 0.00 0.00 0.74 8
20260509010107 23 203 0.0 0.0 0.00 0.00 0.74 8
20260509005106 23 248 0.0 0.0 0.00 0.00 0.74 8
20260509004107 23 225 0.0 0.0 0.00 0.00 0.74 8
20260509003107 23 203 0.0 0.0 0.00 0.00 0.74 8
20260509002107 23 225 0.0 0.0 0.00 0.00 0.74 8
20260509001107 23 225 0.0 0.0 0.00 0.00 0.74 8
20260509000107 23 203 0.0 0.0 0.00 0.00 0.74 8
20260508235108 23 203 0.0 0.0 0.00 0.00 0.74 8
20260508234106 23 203 0.0 0.0 0.00 0.00 0.74 8
20260508233106 23 225 0.0 0.0 0.00 0.00 0.74 8
20260508232107 24 248 1.6 0.0 0.00 0.00 0.74 8
20260508231107 24 135 1.6 0.0 0.00 0.00 0.74 8
20260508230107 24 225 1.6 0.0 0.00 0.00 0.74 8
20260508225106 25 225 0.0 0.0 0.00 0.00 0.74 8
20260508224107 25 203 0.0 0.0 0.00 0.00 0.74 8
20260508223107 25 203 3.2 0.0 0.00 0.00 0.74 8
20260508222106 25 180 0.0 0.0 0.00 0.00 0.74 8
20260508221107 25 248 0.0 0.0 0.00 0.00 0.74 7
20260508220107 25 203 0.0 0.0 0.00 0.00 0.74 7
20260508215107 26 248 0.0 0.0 0.00 0.00 0.74 7
20260508214107 26 248 1.6 0.0 0.00 0.00 0.74 7